Regional Weather Roundup
Issued by NWS State College, PA

Home | Current Version | Previous Version | Graphics & Text | Print | Product List | Glossary On
Versions: 1 2 3 4 5 6 7 8 9 10 11 12 13 14 15 16 17 18 19 20 21 22 23 24 25 26 27 28 29 30 31 32 33 34 35 36 37 38 39 40 41 42 43 44 45 46 47 48 49 50
000
ASUS41 KCTP 041203
RWRCTP

REGIONAL WEATHER ROUNDUP
NATIONAL WEATHER SERVICE STATE COLLEGE PA
700 AM EST WED MAR 04 2015

Note: "fair" indicates few or no clouds below 12,000 feet with no
significant weather and/or obstructions to visibility.

* = STATION THAT DOES NOT REPORT PRECIPITATION /E.G. RAIN...SNOW...ETC/
    THUNDER OR FOG.

PAZ002>004-007>009-013>016-020>023-029>032-041300-
WESTERN PENNSYLVANIA

CITY           SKY/WX    TMP DP  RH WIND       PRES   REMARKS
ERIE           CLOUDY    33  28  81 W6        29.84S
MEADVILLE        N/A     32  26  78 SW5       29.82S
FRANKLIN*      CLOUDY    32  28  86 W6        29.84S
NEW CASTLE     CLOUDY    33  33 100 CALM      29.88S FOG
BEAVER COUNTY  LGT SNOW  32  32 100 SW6       29.87
BUTLER*        CLOUDY    34  30  86 W6        29.89R
PITTSBURGH INT LGT SNOW  33  32  96 SW5       29.88R VSB 1
PITTSBURGH     LGT SNOW  33  29  85 SW7       29.87R VSB 1
INDIANA*       FOG       32  32 100 SW7       29.91R VSB 1/2
LATROBE        LGT RAIN  36  36 100 W12       29.90R
WASHINGTON CO* CLOUDY    34  34 100 CALM      29.90S
$$

PAZ004>006-010>012-017>019-024>028-033>037-041-042-045-046-049>053-041300-
CENTRAL PENNSYLVANIA

CITY           SKY/WX    TMP DP  RH WIND       PRES   REMARKS
BRADFORD       CLOUDY    31  28  89 W10       29.76F
DUBOIS         LGT SNOW  32  32 100 W12       29.80R FOG
CLEARFIELD     SNOW      33  32  96 S9        29.81S VSB 1/4
JOHNSTOWN      SNOW      34  33  96 W9        29.82R VSB 1/4
ALTOONA        LGT RAIN  40  35  83 SW9       29.84R
STATE COLLEGE  CLOUDY    36  34  93 S7        29.82S
WILLIAMSPORT   CLOUDY    31  28  89 CALM      29.82R FOG
SELINSGROVE    CLOUDY    33  32  96 CALM      29.83F FOG
FT INDIANTOWN  MOCLDY    31  31  96 CALM      29.83S FOG
CAPITAL CITY   LGT RAIN  34  32  92 SW5       29.85R FOG
HARRISBURG     CLOUDY    33  31  92 CALM      29.85R FOG
YORK           CLOUDY    34  33  96 CALM      29.85R FOG
$$

PAZ038>040-043-044-047-048-054-055-060>062-067>071-041300-
EASTERN PENNSYLVANIA

CITY           SKY/WX    TMP DP  RH WIND       PRES   REMARKS
SCRANTON       FRZ RAIN  33  29  85 SW8       29.79S FOG
MOUNT POCONO   LGT RAIN  35  33  92 NW16      29.72F
ALLENTOWN      CLOUDY    34  31  88 SW9       29.83R FOG
QUAKERTOWN*    CLOUDY    32  32 100 CALM      29.83R VSB 1/2
READING        LGT RAIN  33  31  92 CALM      29.84R FOG
LANCASTER      LGT RAIN  33  32  96 CALM      29.84R VSB 1
COATESVILLE    MIX PCPN  36  36 100 W6        29.84R
POTTSTOWN      CLOUDY    34  34 100 CALM      29.86R FOG
BLUE BELL        N/A     36  36 100 CALM      29.83S
DOYLESTOWN     CLOUDY    32  32 100 CALM      29.82R FOG
WILLOW GROVE   NOT AVBL
NORTH PHILA    CLOUDY    37  33  85 W3        29.86R FOG
PHILADELPHIA   CLOUDY    35  33  92 SW8       29.86R FOG
$$


USA.gov is the U.S. government's official web portal to all federal, state and local government web resources and services.